User: anonymous   Login
Location: Unspecified
(0.0000°N, 0.0000°E)
Time: 23:24:20
(UTC+00:00)
Language:

STARLINK-32458 - Orbit

View from above orbital plane
View from above orbital plane
View from above satellite
View from above satellite

Ground track
Ground track

The orbit is defined by the following mean orbital elements,

1 61962U          26145.24373094 +.00000000 +00000-0 +54911-3 0 00000
2 61962  43.0037  93.1462 0001425 259.0180 101.0512 15.27598836    09
Epoch (UTC): 25 May 2026 05:50:58
Eccentricity: 0.0001425
inclination: 43.0037°
perigee height: 482 km
apogee height: 484 km
right ascension of ascending node: 93.1462°
argument of perigee: 259.0180°
revolutions per day: 15.27598836
mean anomaly at epoch: 101.0512°

The dashed part of the orbit path shows where the satellite is in the earth's shadow,  

DLR